STARLINK-34269, 64386

Orbit data source: Space-Track

STARLINK-34269, 64386 is a payload satellite owned by SpaceX/Seattle (US) in LEO that was launched on Fri, 13 Jun 2025 UTC via an FALCON 9 launch vehicle from the Air Force Eastern Test Range (AFETR). Payload-class satellites include a variety of spacecraft equipped with specific instruments for various scientific and technological missions. These include communications satellites like Starlink; space stations such as the ISS; scientific satellites like the Hubble; Earth observation satellites from companies like Planet Labs, Umbra, and HawkEye 360; GPS; miniature CubeSats for education and research; and military/defense satellites.

Loading next visibility...
Identifier
64386, 2025-127S
Orbit
LEO
Country
Flag of USUS
Related business
Manufacturer
SpaceX/Seattle
Mission
Operational Commercial Communications
Bus & Motor
STARLINK V2MO, Unknown motor
Mass
575 kg wet, ~530 kg dry
Launch date (UTC)
2025-06-13 (10 months ago)
Launch vehicle
FALCON 9
Launch site
Air Force Eastern Test Range (AFETR)
Object type
Payload
Rocket body
Debris
Shape & HBR
Box + 2 Pan, 17.7 m
Radar Cross Section
36.964 m², Large (>1 m²)

Expand to show TLE details & history
Last TLE update: 12 hours ago

TLE from 12 hours ago
0 STARLINK-34269
1 64386U 25127S   26095.18914324  .00027304  00000-0  99720-3 0  9994
2 64386  43.0034  29.7938 0001194 281.2594  78.8124 15.27608643 46526
Epoch: 2026-04-05T04:32Z
TLE epoch observation values (Epoch: 2026-04-05T04:32:21.975Z)
Latitude
-0°
Longitude
128.2041°
Altitude
482.58 km
Speed
7.626 km/s
True Right ascension
01h 59m 10s
True Declination
0° 00' 00"
Sunlit
Object was in daylight at epoch
Visualization orbit readout
Latitude
Unknown
Longitude
Unknown
Altitude
Unknown
Speed
Unknown
Apparent Right ascension
Unknown
Apparent Declination
Unknown
Sunlit
N/A
Visualization observer readout
Local Sidereal Time
22:14:21
Azimuth
Unknown
Elevation
Unknown
Doppler factor
Unknown
Orbital elements
Apogee altitude
485.727 km
Perigee altitude
484.089 km
Semi-major axis
6,863.045 km
Eccentricity
0.00012
Inclination
43.0034°
RAAN
29.7938°
Arg. of periapsis
281.2594°
True anomaly
78.82582°
Mean anomaly
78.8124°
Eccentric anomaly
78.81911°
Mean motion
3.8174 °/min
Orbital period
94.3 mins
BSTAR
0.0009972
Loading maneuver chart data...
Computing Atmospheric mass density...
Loading historical data...
Loading historical data...
Loading historical data...
Loading historical data...
Loading historical data...
Loading historical data...
Loading historical data...

Documentation

Showing up to 5 results
|